Location: Culleoka
(33.1312°N, 96.4919°W)
Time: 09:52:36
(UTC+00:00)

H-2A R/B - Pass Details

Date: 06 July 2022
Orbit: 576 x 652 km, 98.5° (Epoch: 13 August)

Event Time Altitude Azimuth Distance (km) Brightness Sun altitude
Rises 02:20:44 0° 18° (NNE) 2,952 5.8 -8.4°
Reaches altitude 10° 02:22:59 10° 24° (NNE) 2,047 4.9 -8.8°
Maximum altitude 02:27:21 53° 101° (E) 802 2.3 -9.5°
Drops below altitude 10° 02:31:43 10° 178° (S) 2,049 4.4 -10.3°
Sets 02:33:58 0° 183° (S) 2,955 5.2 -10.7°
